Back to catalog

STARLINK-38175

AliveCommunicationsSSO
NORAD 100161·PAYLOAD·🇺🇸 United States

Launched Jul 25, 2026 from Vandenberg Space Force Base

Loading…

Next Passes (next 24 hours)

TLE

FreshSource: Space-Track

Epoch: Sep 14, 2026, 12:32 UTC

1 A0161U 26171P   26257.52247752  .00013859  00000-0  38518-3 0  9995
2 A0161  97.2841 290.1046 0001037  78.5727 281.5634 15.36976314  7988

Track STARLINK-38175 in real time with AllMySat

Download on the App Store